QPF
0.04 0.07 0.10 0.09 0.09 0.10 0.12 0.14 0.15 0.12 0.07 0.06 0.05 0.04 0.03 0.04 0.04 0.04 0.03 0.01 0.01 0.01 0.00 0.00 0.00 0.00 0.00 0.00 0.00 0.00 0.00 0.00 0.00 0.00 0.00 0.00 0.00 0.00 0.00 0.00 0.00 0.00 0.00 0.00
0.05 0.08 0.09 0.06 0.06 0.08 0.12 0.15 0.16 0.12 0.07 0.05 0.04 0.03 0.02 0.03 0.04 0.03 0.04 0.03 0.01 0.01 0.00 0.00 0.00 0.00 0.00 0.00 0.00 0.00 0.00 0.00 0.00 0.00 0.00 0.00 0.00 0.00 0.00 0.00 0.00 0.00 0.00 0.00
0.05 0.07 0.07 0.05 0.06 0.09 0.10 0.10 0.10 0.10 0.10 0.07 0.04 0.02 0.01 0.01 0.02 0.02 0.03 0.04 0.02 0.01 0.01 0.00 0.00 0.00 0.00 0.00 0.00 0.00 0.00 0.00 0.00 0.00 0.00 0.00 0.00 0.00 0.00 0.00 0.00 0.00 0.00 0.00
0.04 0.07 0.07 0.06 0.05 0.08 0.08 0.05 0.05 0.06 0.08 0.07 0.05 0.04 0.02 0.01 0.01 0.01 0.02 0.02 0.02 0.02 0.01 0.01 0.00 0.00 0.00 0.00 0.00 0.00 0.00 0.00 0.00 0.00 0.00 0.00 0.00 0.00 0.00 0.00 0.00 0.00 0.00 0.00
0.03 0.05 0.05 0.07 0.04 0.04 0.04 0.04 0.05 0.06 0.06 0.06 0.05 0.04 0.02 0.01 0.00 0.00 0.01 0.01 0.01 0.01 0.01 0.01 0.00 0.00 0.00 0.00 0.00 0.00 0.00 0.00 0.00 0.00 0.00 0.00 0.00 0.00 0.00 0.00 0.00 0.00 0.00 0.00
0.03 0.03 0.03 0.04 0.03 0.02 0.03 0.04 0.05 0.05 0.06 0.06 0.05 0.03 0.03 0.01 0.00 0.00 0.01 0.01 0.00 0.00 0.01 0.01 0.00 0.00 0.00 0.00 0.00 0.00 0.00 0.00 0.00 0.00 0.00 0.00 0.00 0.00 0.00 0.00 0.00 0.00 0.00 0.00
0.02 0.02 0.02 0.02 0.02 0.02 0.02 0.03 0.06 0.06 0.06 0.04 0.03 0.02 0.02 0.00 0.00 0.00 0.01 0.01 0.01 0.01 0.00 0.01 0.00 0.00 0.00 0.00 0.00 0.00 0.00 0.00 0.00 0.00 0.00 0.00 0.00 0.00 0.00 0.00 0.00 0.00 0.00 0.01
0.02 0.02 0.01 0.01 0.01 0.01 0.01 0.01 0.05 0.07 0.06 0.03 0.03 0.03 0.01 0.00 0.00 0.00 0.01 0.01 0.01 0.01 0.01 0.01 0.00 0.00 0.00 0.00 0.00 0.00 0.00 0.00 0.00 0.00 0.00 0.00 0.00 0.00 0.00 0.00 0.00 0.00 0.00 0.01
0.01 0.01 0.00 0.01 0.01 0.00 0.01 0.02 0.03 0.04 0.03 0.02 0.02 0.02 0.01 0.00 0.00 0.01 0.00 0.01 0.01 0.01 0.01 0.00 0.00 0.00 0.00 0.00 0.00 0.00 0.00 0.00 0.00 0.00 0.00 0.00 0.00 0.00 0.00 0.00 0.00 0.00 0.00 0.00
0.01 0.02 0.01 0.00 0.01 0.01 0.01 0.03 0.03 0.03 0.03 0.03 0.02 0.01 0.00 0.00 0.00 0.01 0.01 0.01 0.01 0.01 0.01 0.00 0.00 0.00 0.00 0.00 0.00 0.01 0.00 0.00 0.00 0.00 0.00 0.00 0.00 0.00 0.00 0.00 0.00 0.00 0.00 0.00
0.01 0.02 0.01 0.01 0.01 0.01 0.01 0.02 0.02 0.02 0.02 0.03 0.02 0.01 0.00 0.00 0.00 0.00 0.00 0.01 0.00 0.00 0.00 0.00 0.00 0.00 0.00 0.00 0.00 0.00 0.00 0.00 0.00 0.00 0.00 0.00 0.00 0.00 0.00 0.00 0.00 0.00 0.00 0.00
0.01 0.02 0.01 0.00 0.00 0.01 0.01 0.01 0.01 0.02 0.02 0.02 0.01 0.01 0.00 0.00 0.00 0.00 0.00 0.00 0.00 0.00 0.00 0.00 0.00 0.00 0.00 0.00 0.00 0.00 0.00 0.00 0.00 0.00 0.00 0.00 0.00 0.00 0.00 0.00 0.00 0.00 0.00 0.00
0.01 0.02 0.03 0.02 0.02 0.01 0.01 0.00 0.01 0.02 0.02 0.02 0.01 0.00 0.00 0.00 0.00 0.00 0.00 0.00 0.00 0.00 0.00 0.00 0.00 0.00 0.00 0.00 0.00 0.00 0.00 0.00 0.01 0.00 0.01 0.00 0.00 0.00 0.00 0.00 0.00 0.00 0.00 0.00
0.00 0.01 0.02 0.02 0.02 0.01 0.00 0.00 0.01 0.02 0.01 0.02 0.01 0.00 0.00 0.00 0.00 0.00 0.00 0.00 0.00 0.00 0.00 0.00 0.00 0.00 0.00 0.00 0.00 0.00 0.00 0.01 0.01 0.01 0.01 0.00 0.00 0.00 0.00 0.00 0.00 0.00 0.00 0.00
0.00 0.01 0.02 0.02 0.02 0.01 0.00 0.00 0.00 0.00 0.00 0.01 0.01 0.00 0.00 0.00 0.00 0.00 0.00 0.00 0.00 0.00 0.00 0.00 0.00 0.00 0.00 0.00 0.00 0.00 0.00 0.00 0.01 0.01 0.01 0.01 0.00 0.00 0.00 0.00 0.00 0.00 0.00 0.01
0.00 0.01 0.01 0.01 0.01 0.01 0.00 0.00 0.00 0.00 0.00 0.00 0.00 0.00 0.00 0.00 0.00 0.00 0.00 0.00 0.00 0.00 0.00 0.00 0.00 0.00 0.00 0.00 0.00 0.00 0.00 0.00 0.00 0.00 0.01 0.01 0.01 0.01 0.01 0.01 0.01 0.01 0.02 0.02
0.01 0.01 0.02 0.01 0.01 0.01 0.00 0.00 0.00 0.00 0.00 0.00 0.00 0.00 0.00 0.00 0.00 0.00 0.00 0.00 0.00 0.00 0.00 0.00 0.00 0.00 0.00 0.00 0.00 0.00 0.00 0.00 0.00 0.00 0.00 0.00 0.01 0.01 0.01 0.01 0.01 0.01 0.01 0.01
0.01 0.01 0.02 0.01 0.00 0.00 0.00 0.00 0.00 0.00 0.00 0.00 0.00 0.00 0.00 0.00 0.00 0.00 0.00 0.00 0.00 0.00 0.00 0.00 0.00 0.00 0.00 0.00 0.00 0.00 0.00 0.00 0.00 0.00 0.00 0.00 0.00 0.00 0.01 0.01 0.01 0.01 0.01 0.01
0.01 0.01 0.01 0.00 0.00 0.00 0.00 0.00 0.00 0.00 0.00 0.00 0.00 0.00 0.00 0.00 0.00 0.00 0.00 0.00 0.00 0.00 0.00 0.00 0.00 0.00 0.00 0.00 0.00 0.00 0.00 0.00 0.00 0.00 0.00 0.00 0.00 0.00 0.00 0.00 0.00 0.00 0.00 0.01
0.00 0.00 0.00 0.00 0.00 0.00 0.00 0.00 0.00 0.00 0.00 0.00 0.00 0.00 0.00 0.00 0.00 0.00 0.00 0.00 0.00 0.00 0.00 0.00 0.00 0.00 0.00 0.00 0.00 0.00 0.00 0.00 0.00 0.00 0.00 0.00 0.00 0.00 0.00 0.00 0.00 0.00 0.00 0.00
0.00 0.00 0.00 0.00 0.00 0.00 0.00 0.00 0.00 0.00 0.00 0.00 0.00 0.00 0.00 0.00 0.00 0.00 0.00 0.00 0.00 0.00 0.00 0.00 0.00 0.00 0.00 0.00 0.00 0.00 0.00 0.00 0.00 0.00 0.00 0.00 0.00 0.00 0.00 0.00 0.00 0.00 0.00 0.00
0.00 0.00 0.00 0.00 0.00 0.00 0.00 0.00 0.00 0.00 0.00 0.00 0.00 0.00 0.00 0.00 0.00 0.00 0.00 0.00 0.00 0.00 0.00 0.00 0.00 0.00 0.00 0.00 0.00 0.00 0.00 0.00 0.00 0.00 0.00 0.00 0.00 0.00 0.00 0.00 0.00 0.00 0.00 0.00
0.00 0.00 0.00 0.00 0.00 0.00 0.00 0.00 0.00 0.00 0.00 0.00 0.00 0.00 0.00 0.00 0.00 0.00 0.00 0.00 0.00 0.00 0.00 0.00 0.00 0.00 0.00 0.00 0.00 0.00 0.00 0.00 0.00 0.00 0.00 0.00 0.00 0.00 0.00 0.00 0.00 0.00 0.00 0.00
0.00 0.00 0.00 0.00 0.00 0.00 0.01 0.00 0.00 0.00 0.00 0.00 0.00 0.00 0.00 0.00 0.00 0.00 0.00 0.00 0.00 0.00 0.00 0.00 0.00 0.00 0.00 0.00 0.00 0.00 0.00 0.00 0.00 0.00 0.00 0.00 0.00 0.00 0.00 0.00 0.00 0.00 0.00 0.00
0.00 0.00 0.00 0.00 0.00 0.00 0.00 0.00 0.00 0.00 0.00 0.00 0.00 0.00 0.00 0.00 0.00 0.00 0.00 0.00 0.00 0.00 0.00 0.00 0.00 0.00 0.00 0.00 0.00 0.00 0.00 0.00 0.00 0.00 0.00 0.00 0.00 0.00 0.00 0.00 0.00 0.00 0.00 0.00
0.00 0.00 0.00 0.00 0.00 0.00 0.00 0.00 0.00 0.00 0.00 0.00 0.00 0.00 0.00 0.00 0.00 0.00 0.00 0.00 0.00 0.00 0.00 0.00 0.00 0.00 0.00 0.00 0.00 0.00 0.00 0.00 0.00 0.00 0.00 0.00 0.00 0.00 0.00 0.00 0.00 0.00 0.00 0.00
MSLP
1015.57 1016.22 1016.78 1017.25 1017.68 1018.11 1018.57 1019.06 1019.55 1020.01 1020.36 1020.55 1020.57 1020.39 1020.05 1019.62 1019.14 1018.69 1018.33 1018.08 1017.93 1017.87 1017.87 1017.87 1017.86 1017.83 1017.77 1017.72 1017.70 1017.75 1017.88 1018.10 1018.38 1018.70 1019.02 1019.29 1019.49 1019.59 1019.60 1019.53 1019.40 1019.25 1019.10 1018.97
1016.48 1017.03 1017.45 1017.79 1018.11 1018.47 1018.91 1019.42 1019.99 1020.52 1020.96 1021.22 1021.26 1021.06 1020.64 1020.08 1019.46 1018.86 1018.35 1017.98 1017.76 1017.66 1017.64 1017.66 1017.68 1017.66 1017.61 1017.56 1017.53 1017.57 1017.70 1017.93 1018.25 1018.63 1019.02 1019.38 1019.66 1019.83 1019.89 1019.85 1019.73 1019.57 1019.41 1019.28
1017.24 1017.68 1017.98 1018.20 1018.42 1018.73 1019.16 1019.71 1020.34 1020.96 1021.46 1021.77 1021.81 1021.56 1021.05 1020.35 1019.57 1018.80 1018.15 1017.66 1017.36 1017.23 1017.22 1017.27 1017.33 1017.37 1017.37 1017.34 1017.33 1017.37 1017.51 1017.75 1018.09 1018.51 1018.96 1019.38 1019.73 1019.97 1020.09 1020.10 1020.01 1019.88 1019.73 1019.61
1017.83 1018.17 1018.36 1018.49 1018.65 1018.93 1019.37 1019.96 1020.64 1021.31 1021.86 1022.17 1022.18 1021.85 1021.21 1020.36 1019.41 1018.48 1017.68 1017.09 1016.73 1016.59 1016.62 1016.74 1016.89 1017.01 1017.09 1017.13 1017.16 1017.22 1017.36 1017.60 1017.95 1018.38 1018.85 1019.30 1019.70 1020.00 1020.18 1020.24 1020.21 1020.12 1020.01 1019.91
1018.28 1018.53 1018.64 1018.72 1018.86 1019.14 1019.60 1020.23 1020.94 1021.63 1022.17 1022.44 1022.36 1021.91 1021.13 1020.11 1019.00 1017.91 1017.00 1016.33 1015.94 1015.82 1015.91 1016.13 1016.40 1016.65 1016.84 1016.97 1017.06 1017.16 1017.30 1017.53 1017.85 1018.25 1018.70 1019.16 1019.58 1019.92 1020.15 1020.27 1020.30 1020.27 1020.21 1020.16
1018.62 1018.82 1018.91 1018.98 1019.13 1019.44 1019.93 1020.58 1021.29 1021.95 1022.43 1022.60 1022.39 1021.80 1020.85 1019.67 1018.39 1017.19 1016.18 1015.47 1015.08 1015.01 1015.20 1015.55 1015.96 1016.35 1016.67 1016.90 1017.06 1017.19 1017.33 1017.53 1017.80 1018.14 1018.55 1018.98 1019.38 1019.74 1020.00 1020.18 1020.28 1020.32 1020.33 1020.33
1018.89 1019.08 1019.19 1019.30 1019.51 1019.86 1020.38 1021.03 1021.71 1022.30 1022.66 1022.69 1022.33 1021.56 1020.46 1019.12 1017.73 1016.43 1015.37 1014.65 1014.30 1014.30 1014.59 1015.07 1015.61 1016.14 1016.58 1016.91 1017.14 1017.29 1017.42 1017.57 1017.78 1018.05 1018.39 1018.76 1019.14 1019.49 1019.78 1020.01 1020.17 1020.29 1020.37 1020.43
1019.11 1019.33 1019.51 1019.70 1019.98 1020.40 1020.94 1021.57 1022.19 1022.67 1022.89 1022.76 1022.23 1021.30 1020.05 1018.61 1017.14 1015.80 1014.74 1014.03 1013.73 1013.81 1014.18 1014.76 1015.41 1016.04 1016.57 1016.97 1017.24 1017.40 1017.51 1017.62 1017.76 1017.96 1018.23 1018.54 1018.88 1019.22 1019.53 1019.79 1020.02 1020.20 1020.35 1020.47
1019.23 1019.53 1019.81 1020.11 1020.49 1020.97 1021.54 1022.14 1022.67 1023.03 1023.11 1022.82 1022.14 1021.09 1019.75 1018.26 1016.77 1015.44 1014.41 1013.75 1013.49 1013.61 1014.04 1014.66 1015.36 1016.03 1016.59 1017.02 1017.30 1017.46 1017.55 1017.62 1017.72 1017.86 1018.07 1018.33 1018.64 1018.96 1019.28 1019.58 1019.85 1020.09 1020.30 1020.48
1019.20 1019.62 1020.02 1020.45 1020.93 1021.49 1022.07 1022.64 1023.09 1023.33 1023.28 1022.87 1022.10 1020.98 1019.63 1018.15 1016.71 1015.45 1014.48 1013.87 1013.65 1013.78 1014.20 1014.79 1015.45 1016.08 1016.62 1017.02 1017.28 1017.43 1017.50 1017.55 1017.62 1017.74 1017.91 1018.15 1018.44 1018.76 1019.08 1019.41 1019.71 1019.99 1020.24 1020.46
1018.96 1019.49 1020.03 1020.59 1021.18 1021.80 1022.41 1022.95 1023.34 1023.50 1023.36 1022.90 1022.09 1021.00 1019.71 1018.34 1017.02 1015.87 1014.99 1014.44 1014.23 1014.32 1014.65 1015.14 1015.68 1016.19 1016.63 1016.95 1017.16 1017.28 1017.35 1017.40 1017.47 1017.60 1017.78 1018.02 1018.30 1018.62 1018.95 1019.29 1019.60 1019.90 1020.18 1020.42
1018.50 1019.14 1019.80 1020.47 1021.16 1021.85 1022.48 1023.00 1023.36 1023.47 1023.31 1022.85 1022.11 1021.12 1019.98 1018.78 1017.64 1016.64 1015.88 1015.38 1015.15 1015.16 1015.36 1015.67 1016.02 1016.36 1016.64 1016.84 1016.97 1017.06 1017.12 1017.20 1017.30 1017.46 1017.67 1017.93 1018.23 1018.55 1018.88 1019.21 1019.52 1019.82 1020.09 1020.34
1017.84 1018.57 1019.33 1020.10 1020.87 1021.60 1022.25 1022.78 1023.12 1023.24 1023.11 1022.73 1022.10 1021.30 1020.37 1019.40 1018.48 1017.67 1017.04 1016.59 1016.33 1016.23 1016.25 1016.35 1016.48 1016.59 1016.69 1016.75 1016.79 1016.84 1016.91 1017.01 1017.16 1017.37 1017.62 1017.90 1018.21 1018.53 1018.84 1019.14 1019.43 1019.70 1019.95 1020.19
1017.10 1017.89 1018.71 1019.54 1020.35 1021.12 1021.79 1022.32 1022.68 1022.83 1022.78 1022.51 1022.06 1021.47 1020.80 1020.10 1019.43 1018.83 1018.32 1017.93 1017.64 1017.43 1017.27 1017.15 1017.04 1016.94 1016.84 1016.76 1016.71 1016.71 1016.77 1016.90 1017.09 1017.34 1017.62 1017.92 1018.22 1018.51 1018.78 1019.04 1019.28 1019.50 1019.72 1019.93
1016.43 1017.24 1018.08 1018.94 1019.77 1020.53 1021.20 1021.74 1022.12 1022.32 1022.36 1022.23 1021.98 1021.62 1021.21 1020.78 1020.36 1019.96 1019.60 1019.26 1018.95 1018.65 1018.34 1018.02 1017.71 1017.41 1017.14 1016.93 1016.79 1016.74 1016.79 1016.93 1017.13 1017.39 1017.67 1017.95 1018.22 1018.46 1018.68 1018.87 1019.04 1019.21 1019.38 1019.56
1015.98 1016.78 1017.61 1018.45 1019.26 1020.00 1020.65 1021.18 1021.57 1021.82 1021.93 1021.94 1021.87 1021.73 1021.56 1021.37 1021.17 1020.96 1020.73 1020.47 1020.16 1019.80 1019.38 1018.93 1018.47 1018.02 1017.62 1017.30 1017.09 1016.99 1017.01 1017.12 1017.30 1017.53 1017.77 1018.00 1018.20 1018.36 1018.49 1018.61 1018.71 1018.82 1018.94 1019.08
1015.87 1016.63 1017.43 1018.21 1018.97 1019.66 1020.27 1020.76 1021.14 1021.41 1021.59 1021.69 1021.76 1021.79 1021.81 1021.82 1021.81 1021.76 1021.65 1021.47 1021.19 1020.81 1020.35 1019.83 1019.28 1018.74 1018.26 1017.88 1017.60 1017.45 1017.41 1017.47 1017.59 1017.74 1017.90 1018.03 1018.13 1018.20 1018.24 1018.27 1018.30 1018.35 1018.43 1018.54
1016.15 1016.86 1017.58 1018.30 1018.98 1019.60 1020.13 1020.57 1020.91 1021.18 1021.38 1021.54 1021.69 1021.84 1021.99 1022.13 1022.26 1022.33 1022.33 1022.22 1021.99 1021.65 1021.20 1020.67 1020.10 1019.54 1019.03 1018.60 1018.28 1018.07 1017.97 1017.94 1017.97 1018.01 1018.05 1018.06 1018.04 1018.00 1017.95 1017.89 1017.86 1017.86 1017.90 1017.98
1016.75 1017.39 1018.04 1018.67 1019.26 1019.79 1020.24 1020.61 1020.90 1021.13 1021.32 1021.50 1021.69 1021.89 1022.11 1022.34 1022.54 1022.70 1022.77 1022.73 1022.58 1022.29 1021.89 1021.41 1020.88 1020.35 1019.85 1019.41 1019.06 1018.80 1018.61 1018.48 1018.39 1018.30 1018.21 1018.09 1017.95 1017.81 1017.67 1017.55 1017.46 1017.42 1017.43 1017.48
1017.50 1018.08 1018.66 1019.20 1019.70 1020.14 1020.51 1020.80 1021.04 1021.23 1021.40 1021.57 1021.76 1021.97 1022.22 1022.47 1022.71 1022.91 1023.04 1023.06 1022.97 1022.76 1022.44 1022.03 1021.58 1021.10 1020.64 1020.22 1019.85 1019.54 1019.27 1019.04 1018.83 1018.61 1018.39 1018.15 1017.91 1017.67 1017.46 1017.29 1017.17 1017.09 1017.07 1017.09
1018.24 1018.76 1019.26 1019.73 1020.15 1020.51 1020.81 1021.05 1021.25 1021.41 1021.55 1021.71 1021.88 1022.09 1022.33 1022.58 1022.83 1023.04 1023.19 1023.26 1023.23 1023.09 1022.85 1022.54 1022.16 1021.76 1021.35 1020.95 1020.57 1020.23 1019.90 1019.58 1019.26 1018.94 1018.61 1018.27 1017.95 1017.65 1017.39 1017.18 1017.02 1016.91 1016.85 1016.82
1018.78 1019.25 1019.69 1020.09 1020.45 1020.76 1021.02 1021.24 1021.41 1021.57 1021.71 1021.86 1022.03 1022.23 1022.46 1022.70 1022.94 1023.15 1023.31 1023.41 1023.41 1023.33 1023.17 1022.92 1022.63 1022.29 1021.93 1021.57 1021.20 1020.83 1020.46 1020.08 1019.68 1019.28 1018.88 1018.48 1018.10 1017.76 1017.46 1017.21 1017.02 1016.87 1016.75 1016.64
1019.01 1019.44 1019.83 1020.19 1020.52 1020.81 1021.06 1021.28 1021.47 1021.65 1021.82 1021.99 1022.18 1022.39 1022.62 1022.85 1023.08 1023.29 1023.45 1023.55 1023.58 1023.53 1023.41 1023.23 1022.99 1022.71 1022.40 1022.06 1021.71 1021.33 1020.94 1020.53 1020.10 1019.65 1019.21 1018.77 1018.36 1017.99 1017.66 1017.38 1017.13 1016.92 1016.73 1016.52
1018.91 1019.31 1019.67 1020.01 1020.32 1020.62 1020.89 1021.15 1021.39 1021.63 1021.85 1022.08 1022.32 1022.56 1022.81 1023.05 1023.28 1023.47 1023.62 1023.72 1023.75 1023.72 1023.63 1023.47 1023.27 1023.02 1022.74 1022.43 1022.10 1021.73 1021.34 1020.93 1020.49 1020.04 1019.58 1019.13 1018.70 1018.30 1017.93 1017.60 1017.29 1016.99 1016.70 1016.38
1018.55 1018.91 1019.26 1019.60 1019.93 1020.26 1020.58 1020.90 1021.21 1021.52 1021.83 1022.14 1022.44 1022.73 1023.02 1023.28 1023.51 1023.71 1023.85 1023.94 1023.96 1023.92 1023.82 1023.67 1023.48 1023.25 1022.99 1022.70 1022.38 1022.04 1021.67 1021.27 1020.84 1020.40 1019.95 1019.49 1019.05 1018.61 1018.20 1017.79 1017.40 1017.00 1016.58 1016.14
1018.04 1018.39 1018.74 1019.09 1019.46 1019.83 1020.21 1020.61 1021.00 1021.40 1021.79 1022.17 1022.55 1022.90 1023.23 1023.53 1023.78 1023.98 1024.11 1024.18 1024.19 1024.13 1024.01 1023.84 1023.64 1023.40 1023.14 1022.86 1022.56 1022.24 1021.89 1021.52 1021.12 1020.70 1020.25 1019.79 1019.32 1018.84 1018.36 1017.88 1017.38 1016.87 1016.33 1015.76
Thickness
5711 5699 5689 5695 5700 5701 5698 5693 5689 5696 5708 5708 5703 5705 5711 5718 5719 5718 5718 5720 5723 5726 5732 5736 5737 5738 5737 5736 5735 5734 5733 5732 5732 5729 5727 5725 5723 5723 5723 5723 5723 5722 5722 5721
5697 5692 5702 5709 5708 5704 5699 5691 5688 5695 5706 5705 5700 5702 5711 5716 5717 5720 5719 5720 5723 5724 5727 5731 5734 5735 5735 5734 5733 5732 5731 5731 5730 5729 5727 5725 5722 5721 5721 5720 5720 5720 5719 5718
5694 5700 5713 5709 5703 5699 5696 5693 5691 5691 5698 5703 5699 5694 5703 5713 5719 5721 5723 5724 5725 5726 5726 5729 5730 5732 5732 5732 5731 5732 5730 5729 5729 5728 5726 5723 5721 5718 5717 5717 5717 5717 5717 5716
5700 5710 5711 5705 5701 5702 5692 5704 5703 5697 5687 5682 5692 5676 5695 5706 5711 5716 5720 5722 5724 5727 5728 5729 5730 5730 5730 5731 5731 5730 5729 5728 5727 5726 5724 5720 5716 5713 5713 5714 5715 5715 5715 5714
5700 5708 5706 5702 5706 5709 5702 5710 5704 5697 5688 5682 5687 5679 5689 5703 5703 5712 5719 5723 5726 5728 5729 5729 5730 5731 5731 5731 5730 5729 5727 5726 5725 5724 5722 5719 5715 5713 5713 5713 5713 5712 5712 5711
5709 5716 5715 5712 5716 5717 5712 5703 5696 5689 5682 5672 5684 5680 5685 5700 5712 5718 5722 5726 5728 5729 5730 5730 5730 5730 5729 5728 5727 5727 5725 5723 5723 5722 5720 5718 5715 5712 5710 5709 5709 5708 5708 5708
5699 5708 5718 5721 5708 5708 5705 5684 5668 5666 5663 5669 5689 5686 5693 5719 5728 5730 5729 5729 5730 5730 5729 5727 5727 5727 5726 5725 5725 5724 5723 5721 5721 5720 5718 5717 5715 5713 5710 5708 5707 5706 5705 5705
5685 5686 5709 5717 5710 5701 5700 5690 5670 5662 5662 5672 5687 5685 5708 5734 5739 5739 5736 5734 5732 5730 5730 5729 5728 5727 5726 5725 5724 5723 5721 5720 5719 5718 5717 5716 5714 5712 5710 5709 5707 5705 5704 5703
5689 5691 5716 5723 5723 5714 5699 5691 5693 5680 5677 5671 5679 5696 5718 5734 5734 5734 5733 5732 5730 5731 5730 5729 5728 5727 5726 5725 5724 5723 5721 5719 5718 5717 5715 5714 5713 5711 5709 5708 5706 5704 5703 5702
5708 5695 5710 5722 5722 5718 5712 5702 5686 5678 5668 5664 5680 5691 5701 5720 5725 5730 5730 5730 5731 5732 5730 5729 5729 5728 5727 5726 5725 5723 5721 5719 5717 5716 5714 5713 5711 5709 5707 5705 5703 5702 5700 5700
5715 5697 5701 5711 5706 5703 5705 5702 5692 5681 5679 5669 5668 5688 5726 5728 5731 5731 5732 5734 5733 5733 5732 5730 5729 5729 5728 5726 5724 5722 5720 5718 5716 5714 5713 5711 5709 5707 5705 5703 5701 5699 5698 5697
5716 5695 5687 5700 5717 5722 5714 5708 5696 5680 5680 5681 5675 5692 5739 5738 5739 5737 5735 5736 5736 5735 5734 5732 5730 5727 5725 5724 5722 5721 5719 5717 5716 5714 5712 5709 5707 5705 5702 5700 5699 5697 5696 5695
5717 5696 5680 5684 5697 5711 5712 5714 5709 5697 5687 5680 5676 5696 5736 5737 5736 5737 5736 5735 5735 5734 5732 5730 5727 5725 5724 5723 5722 5720 5719 5717 5715 5713 5710 5707 5705 5703 5700 5699 5697 5695 5694 5692
5723 5699 5688 5682 5690 5702 5705 5714 5715 5702 5685 5685 5693 5704 5724 5729 5730 5732 5734 5734 5733 5732 5731 5728 5725 5724 5724 5723 5721 5720 5718 5717 5714 5711 5709 5706 5704 5701 5699 5697 5695 5693 5692 5690
5721 5701 5703 5707 5714 5713 5713 5715 5715 5709 5704 5697 5705 5710 5722 5730 5733 5735 5735 5733 5731 5729 5728 5727 5725 5724 5722 5721 5720 5719 5717 5716 5714 5710 5708 5706 5703 5701 5698 5695 5693 5692 5690 5689
5716 5706 5706 5706 5716 5716 5713 5718 5718 5717 5717 5713 5714 5715 5733 5737 5736 5734 5733 5732 5730 5730 5730 5729 5727 5724 5722 5721 5719 5718 5716 5715 5713 5710 5707 5705 5702 5699 5696 5693 5691 5689 5688 5686
5708 5703 5695 5689 5705 5708 5700 5717 5720 5720 5724 5722 5712 5722 5734 5731 5732 5733 5733 5733 5733 5732 5731 5729 5727 5726 5724 5723 5721 5718 5716 5714 5711 5708 5706 5703 5700 5698 5695 5693 5689 5687 5685 5683
5706 5697 5686 5685 5694 5684 5708 5733 5733 5726 5727 5730 5731 5734 5736 5736 5737 5738 5738 5736 5734 5734 5732 5730 5728 5726 5725 5723 5721 5718 5715 5711 5709 5706 5703 5701 5698 5696 5693 5690 5687 5685 5682 5679
5715 5700 5684 5677 5678 5688 5712 5730 5732 5723 5719 5731 5731 5733 5734 5735 5731 5729 5736 5738 5737 5736 5734 5732 5731 5728 5725 5722 5719 5715 5711 5708 5706 5703 5701 5699 5697 5693 5690 5687 5684 5682 5679 5676
5709 5703 5686 5676 5676 5676 5704 5732 5740 5728 5709 5729 5732 5731 5730 5727 5710 5716 5733 5735 5735 5735 5733 5731 5728 5725 5722 5720 5717 5712 5708 5706 5704 5703 5701 5698 5695 5692 5688 5686 5682 5679 5676 5673
5693 5688 5680 5674 5674 5685 5716 5731 5732 5702 5705 5729 5732 5731 5728 5723 5722 5728 5732 5732 5733 5732 5731 5729 5726 5722 5721 5718 5715 5710 5707 5705 5705 5702 5698 5695 5692 5689 5686 5683 5679 5675 5672 5669
5687 5680 5676 5671 5669 5682 5723 5725 5715 5714 5726 5728 5729 5730 5728 5727 5728 5728 5729 5728 5728 5727 5726 5725 5721 5719 5718 5715 5711 5707 5705 5705 5702 5698 5694 5691 5688 5686 5683 5678 5675 5671 5667 5663
5688 5691 5687 5686 5690 5710 5721 5724 5728 5728 5724 5726 5726 5728 5727 5725 5723 5724 5723 5722 5722 5722 5721 5720 5717 5714 5712 5711 5709 5705 5704 5701 5697 5693 5689 5686 5683 5680 5678 5674 5669 5665 5661 5658
5693 5700 5691 5689 5699 5710 5717 5721 5724 5726 5725 5726 5726 5725 5724 5720 5719 5718 5717 5716 5715 5715 5714 5713 5710 5707 5705 5705 5705 5703 5700 5697 5692 5688 5684 5680 5677 5674 5671 5668 5665 5660 5656 5652
5693 5693 5687 5685 5696 5702 5708 5713 5717 5719 5721 5720 5721 5721 5719 5717 5714 5713 5710 5710 5709 5709 5707 5707 5704 5702 5700 5699 5698 5697 5694 5691 5686 5682 5678 5675 5672 5668 5664 5662 5659 5656 5654 5651
5687 5687 5683 5682 5694 5693 5697 5707 5712 5711 5711 5713 5712 5711 5712 5711 5708 5707 5705 5704 5703 5702 5701 5699 5697 5696 5694 5693 5691 5690 5688 5685 5681 5675 5672 5668 5664 5661 5657 5654 5651 5650 5647 5645